User: anonymous   Login
Location: Unspecified
(0.0000°N, 0.0000°E)
Time: 21:02:20
(UTC+00:00)
Language:

STARLINK-32476 - Orbit

View from above orbital plane
View from above orbital plane
View from above satellite
View from above satellite

Ground track
Ground track

The orbit is defined by the following mean orbital elements,

1 61550U          26145.58335647 +.00000000 +00000-0 +66805-1 0 00005
2 61550  53.1598  16.9292 0001066 110.3872  31.6852 15.30781453    06
Epoch (UTC): 25 May 2026 14:00:01
Eccentricity: 0.0001066
inclination: 53.1598°
perigee height: 473 km
apogee height: 474 km
right ascension of ascending node: 16.9292°
argument of perigee: 110.3872°
revolutions per day: 15.30781453
mean anomaly at epoch: 31.6852°

The dashed part of the orbit path shows where the satellite is in the earth's shadow,  

DLR